Home   Weather   Cairns   Past weeks

Flag for Australia Past Weather in Cairns, Queensland, Australia — Yesterday and Last 2 Weeks

86 °F

Passing clouds.

Feels Like: 88 °F
Forecast: 74 / 89 °F
Wind: 14 mph from Southeast

Location: Cairns Airport

Current Time: Oct 26, 2016 at 2:09:14 PM

Latest Report: Oct 26, 2016 at 1:00 PM

Visibility: N/A

Pressure: 29.98 "Hg

Humidity: 52%

Dew Point: 66 °F

Location of CairnsLocation

Past Weather in Cairns — Graph


Cairns Temperature Yesterday

Maximum temperature yesterday: 84 °F (at 10:00 AM)
Minimum temperature yesterday: 73 °F (at 1:30 AM)
Average temperature yesterday: 78 °F

High & Low Weather Summary for the Past Weeks

High88 °F (Oct 20, 12:00 PM)100% (Oct 12, 6:00 AM)30.04 "Hg (Oct 12, 6:00 AM)
Low64 °F (Oct 12, 6:00 AM)46% (Oct 23, 11:00 AM)29.80 "Hg (Oct 12, 3:00 AM)
Average77 °F73%29.93 "Hg
* Reported Oct 11 1:00 PM — Oct 26 1:00 PM, Cairns, Weather by CustomWeather, © 2016

Note: Actual official high and low records may vary slightly from our data, if they occured in-between our weather recording intervals... More about our weather records


Cairns Weather History for the Previous 24 Hours

Scroll right to see more
Time TempWeatherWind HumidityBarometerVisibility
1:00 PM
Wed, Oct 26
86 °FPassing clouds.14 mph52%29.98 "HgN/A
12:30 PM86 °FPassing clouds.14 mph55%29.98 "HgN/A
12:00 PM86 °FScattered clouds.14 mph52%30.01 "HgN/A
11:30 AM84 °FScattered clouds.13 mph55%30.01 "HgN/A
11:00 AM84 °FScattered clouds.13 mph58%30.01 "HgN/A
10:30 AM86 °FScattered clouds.12 mph49%30.04 "HgN/A
10:00 AM84 °FScattered clouds.12 mph55%30.04 "HgN/A
9:00 AM84 °FPassing clouds.12 mph58%30.04 "HgN/A
8:30 AM81 °FPassing clouds.12 mph66%30.04 "HgN/A
8:00 AM79 °FPassing clouds.10 mph70%30.04 "HgN/A
7:30 AM79 °FPassing clouds.9 mph70%30.04 "HgN/A
7:00 AM77 °FPassing clouds.8 mph69%30.01 "HgN/A
6:30 AM75 °FScattered clouds.10 mph74%30.01 "HgN/A
6:00 AM75 °FPassing clouds.10 mph74%29.98 "HgN/A
5:30 AM75 °FPassing clouds.8 mph74%29.98 "HgN/A
5:00 AM75 °FPassing clouds.7 mph74%29.98 "HgN/A
4:30 AM75 °FPassing clouds.8 mph74%29.95 "HgN/A
4:00 AM75 °FPassing clouds.8 mph74%29.95 "HgN/A
3:00 AM75 °FPassing clouds.8 mph74%29.95 "HgN/A
2:30 AM73 °FPassing clouds.7 mph78%29.95 "HgN/A
2:00 AM75 °FPassing clouds.8 mph74%29.95 "HgN/A
1:00 AM75 °FPassing clouds.7 mph74%29.98 "HgN/A
12:00 AM77 °FPassing clouds.9 mph69%30.01 "HgN/A
11:30 PM
Tue, Oct 25
75 °FPassing clouds.7 mph78%30.01 "HgN/A
11:00 PM77 °FPassing clouds.8 mph69%30.01 "HgN/A
10:30 PM75 °FPartly cloudy.8 mph74%30.01 "HgN/A
10:00 PM77 °FPassing clouds.8 mph69%30.01 "HgN/A
9:30 PM77 °FPassing clouds.9 mph69%30.01 "HgN/A
9:00 PM75 °FPassing clouds.9 mph74%30.01 "HgN/A
8:30 PM75 °FPassing clouds.8 mph74%29.98 "HgN/A
8:00 PM77 °FPassing clouds.8 mph69%29.98 "HgN/A
7:30 PM75 °FPassing clouds.8 mph74%29.98 "HgN/A
7:00 PM77 °FPassing clouds.9 mph69%29.95 "HgN/A
6:30 PM77 °FPassing clouds.15 mph69%29.95 "HgN/A
6:00 PM79 °FScattered clouds.16 mph65%29.95 "HgN/A
5:00 PM81 °FPartly sunny.14 mph62%29.92 "HgN/A
4:30 PM81 °FPartly sunny.15 mph62%29.92 "HgN/A
4:00 PM81 °FPartly sunny.15 mph62%29.92 "HgN/A
3:00 PM82 °FPartly sunny.15 mph55%29.92 "HgN/A
2:30 PM82 °FPartly sunny.16 mph51%29.92 "HgN/A
2:00 PM82 °FPartly sunny.15 mph55%29.92 "HgN/A
Weather by CustomWeather, © 2016

See weather overviewHow to use our weather pages